Regional Weather Roundup
Issued by NWS

Current Version | Previous Version | Text Only | Print | Product List | Glossary On
Versions: 1 2 3 4 5 6 7 8 9 10 11 12 13 14 15 16 17 18 19 20 21 22 23 24 25 26 27 28
000
ASUS45 KREV 021110
RWRNV
NEVADA REGIONAL WEATHER ROUNDUP
NATIONAL WEATHER SERVICE RENO NV
300 AM PST THU FEB 02 2023

NOTE: "FAIR" INDICATES FEW OR NO CLOUDS BELOW 12,000 FEET WITH NO
SIGNIFICANT WEATHER AND/OR OBSTRUCTIONS TO VISIBILITY.

NVZ001-003-004-021200-
WESTERN NEVADA

CITY           SKY/WX    TMP DP  RH WIND       PRES   REMARKS
RENO           CLEAR     20  15  81 CALM      30.29S
CARSON CITY    FAIR      14  12  92 CALM      30.31S
SLIDE MTN        N/A     28  14  54 W25         N/A
PYRAMID LAKE     N/A     32 N/A N/A CALM        N/A
FALLON         NOT AVBL
LOVELOCK       CLEAR     14  11  87 W3        30.30F
$$

NVZ002-CAZ072-073-021200-
NORTHERN AND CENTRAL SIERRA

CITY           SKY/WX    TMP DP  RH WIND       PRES   REMARKS
TRUCKEE        CLEAR     12  10  92 CALM      30.28R
BLUE CANYON    CLEAR     38  15  39 SE3       30.27S
SUSANVILLE     FAIR      21  18  86 NW3       30.29F
MAMMOTH LAKES  FAIR       3   0  85 CALM      30.31F
BRIDGEPORT       N/A     -6  -9  84 SW1         N/A
$$

NVZ030-031-036-021200-
NORTHERN NEVADA

CITY           SKY/WX    TMP DP  RH WIND       PRES   REMARKS
ELKO           CLEAR      2  -5  72 E5        30.39S
WINNEMUCCA     NOT AVBL
BATTLE MOUNTAI SUNNY     19  16  86 E5        30.34S
WENDOVER       CLEAR     14  10  84 CALM      30.44S
$$

NVZ035-037-021200-
CENTRAL NEVADA

CITY           SKY/WX    TMP DP  RH WIND       PRES   REMARKS
ELY            CLEAR      5   0  79 S15       30.34R WCI -13
EUREKA           N/A      8   2  76 SW6       30.32F
$$

NVZ013-014-021200-
SOUTH CENTRAL NEVADA

CITY           SKY/WX    TMP DP  RH WIND       PRES   REMARKS
TONOPAH        PTCLDY    24  17  74 N10       30.32S
$$

NVZ017-020-022-021200-
SOUTHERN NEVADA

CITY           SKY/WX    TMP DP  RH WIND       PRES   REMARKS
LAS VEGAS      PTCLDY    39  22  50 CALM      30.32R
N. LAS VEGAS   CLEAR     40  22  48 NW6       30.31S
NELLIS AFB     CLEAR     41  21  45 NW3       30.29F
HENDERSON      CLEAR     34  22  61 S8        30.33S
MERCURY        CLEAR     39  18  42 VRB5      30.30R
$$



USA.gov is the U.S. government's official web portal to all federal, state and local government web resources and services.